FENGYUN 1C DEB, 36211

Orbit data source: Space-Track

FENGYUN 1C DEB, 36211 is space debris in SSO originally from a launch on Mon, 10 May 1999 UTC launched from the Taiyaun Space Center, China (TSC). Fengyun 1C debris stems from the Chinese weather satellite Fengyun-1C, which was intentionally destroyed by a Chinese anti-satellite missile in 2007. This event dramatically increased the amount of space debris, with thousands of trackable fragments posing hazards to satellites and human spaceflight. The Fengyun 1C debris cloud has become a focal point in discussions about space sustainability and the need for international regulations to prevent the creation of new debris.

Loading next visibility...
Identifier
36211, 1999-025DUL
Orbit
SSO
Country
Flag of CNCN / PRC
Related business
Manufacturer
Unknown
Mission
Spacecraft
Bus & Motor
Unknown
Mass
Unknown
Launch date (UTC)
1999-05-10 (27 years ago)
Launch vehicle
Unknown
Launch site
Taiyaun Space Center, China (TSC)
Object type
Payload
Rocket body
Debris
Shape & HBR
Unknown shape, 0.1 m
Radar Cross Section
Small (<0.1 m²)

Expand to show TLE details & history
Last TLE update: 6 days ago

TLE from 6 days ago
0 FENGYUN 1C DEB
1 36211U 99025DUL 26251.22309157  .00000653  00000-0  19942-3 0  9995
2 36211  98.5208 242.3529 0264830 158.5204 202.7340 14.26857349982110
Epoch: 2026-09-08T05:21Z
TLE epoch observation values (Epoch: 2026-09-08T05:21:15.111Z)
Latitude
-0.00004°
Longitude
174.74735°
Altitude
981.334 km
Speed
7.27 km/s
True Right ascension
16h 09m 24s
True Declination
0° 00' 00"
Sunlit
Object was in daylight at epoch
Visualization orbit readout
Latitude
Unknown
Longitude
Unknown
Altitude
Unknown
Speed
Unknown
Apparent Right ascension
Unknown
Apparent Declination
Unknown
Sunlit
N/A
Visualization observer readout
Local Sidereal Time
01:35:56
Azimuth
Unknown
Elevation
Unknown
Doppler factor
Unknown
Orbital elements
Apogee altitude
989.475 km
Perigee altitude
609.31 km
Semi-major axis
7,177.529 km
Eccentricity
0.02648
Inclination
98.5208°
RAAN
242.3529°
Arg. of periapsis
158.5204°
True anomaly
201.59608°
Mean anomaly
202.734°
Eccentric anomaly
202.16162°
Mean motion
3.56928 °/min
Orbital period
100.86 mins
BSTAR
0.00019942
Loading maneuver chart data...
Computing Atmospheric mass density...
Loading historical data...
Loading historical data...
Loading historical data...
Loading historical data...
Loading historical data...
Loading historical data...
Loading historical data...

Documentation

Showing up to 5 results
|